| time (UTC) | temp F | wind direction | speed knots | gust knots | rain 1hr in | rain 24hr in | rain mn in | humidity % | barometer mb |
| 20260504001550 | 55 | 346 | 0.0 | 0.0 | 0.00 | 0.00 | 0.00 | 51 | 1013.4 |
| 20260504001045 | 55 | 299 | 0.0 | 0.9 | 0.00 | 0.00 | 0.00 | 47 | 1013.6 |
| 20260504000543 | 55 | 263 | 0.0 | 0.9 | 0.00 | 0.00 | 0.00 | 45 | 1013.3 |
| 20260504000040 | 56 | 306 | 0.9 | 0.9 | 0.00 | 0.00 | 0.00 | 49 | 1013.3 |
| 20260503235539 | 56 | 152 | 1.7 | 1.7 | 0.00 | 0.00 | 0.00 | 45 | 1013.5 |
| 20260503235035 | 57 | 301 | 0.9 | 1.7 | 0.00 | 0.00 | 0.00 | 44 | 1013.6 |
| 20260503234532 | 57 | 317 | 0.9 | 2.6 | 0.00 | 0.00 | 0.00 | 45 | 1013.6 |
| 20260503234031 | 57 | 324 | 0.9 | 0.9 | 0.00 | 0.00 | 0.00 | 47 | 1013.7 |
| 20260503233527 | 57 | 275 | 0.9 | 0.9 | 0.00 | 0.00 | 0.00 | 48 | 1013.5 |
| 20260503233023 | 57 | 206 | 4.3 | 5.2 | 0.00 | 0.00 | 0.00 | 43 | 1013.6 |
| 20260503232520 | 57 | 337 | 0.9 | 2.6 | 0.00 | 0.00 | 0.00 | 45 | 1013.6 |
| 20260503232018 | 57 | 180 | 2.6 | 2.6 | 0.00 | 0.00 | 0.00 | 42 | 1013.7 |
| 20260503231515 | 57 | 191 | 4.3 | 5.2 | 0.00 | 0.00 | 0.00 | 43 | 1013.8 |
| 20260503231012 | 57 | 321 | 1.7 | 1.7 | 0.00 | 0.00 | 0.00 | 44 | 1013.8 |
| 20260503230508 | 57 | 240 | 0.0 | 0.9 | 0.00 | 0.00 | 0.00 | 42 | 1013.8 |
| 20260503230006 | 58 | 274 | 0.9 | 1.7 | 0.00 | 0.00 | 0.00 | 43 | 1013.8 |
| 20260503225503 | 58 | 312 | 1.7 | 1.7 | 0.00 | 0.00 | 0.00 | 44 | 1013.9 |
| 20260503224958 | 58 | 219 | 3.5 | 5.2 | 0.00 | 0.00 | 0.00 | 41 | 1013.9 |
| 20260503224455 | 58 | 251 | 0.9 | 1.7 | 0.00 | 0.00 | 0.00 | 40 | 1013.8 |
| 20260503223953 | 58 | 214 | 0.0 | 0.0 | 0.00 | 0.00 | 0.00 | 41 | 1013.8 |
| 20260503223451 | 59 | 205 | 4.3 | 6.1 | 0.00 | 0.00 | 0.00 | 40 | 1013.9 |
| 20260503222946 | 59 | 275 | 0.9 | 0.9 | 0.00 | 0.00 | 0.00 | 41 | 1014.0 |
| 20260503222445 | 59 | 225 | 0.9 | 1.7 | 0.00 | 0.00 | 0.00 | 42 | 1014.0 |
| 20260503221943 | 59 | 343 | 1.7 | 2.6 | 0.00 | 0.00 | 0.00 | 41 | 1014.0 |
| 20260503221441 | 59 | 359 | 1.7 | 2.6 | 0.00 | 0.00 | 0.00 | 42 | 1014.1 |
| 20260503220937 | 59 | 282 | 0.9 | 1.7 | 0.00 | 0.00 | 0.00 | 41 | 1014.2 |
| 20260503220433 | 59 | 263 | 2.6 | 2.6 | 0.00 | 0.00 | 0.00 | 41 | 1014.2 |
| 20260503215931 | 59 | 278 | 0.9 | 0.9 | 0.00 | 0.00 | 0.00 | 43 | 1014.0 |
| 20260503215427 | 59 | 292 | 0.9 | 0.9 | 0.00 | 0.00 | 0.00 | 43 | 1014.3 |
| 20260503214925 | 59 | 187 | 3.5 | 5.2 | 0.00 | 0.00 | 0.00 | 42 | 1014.0 |
| 20260503214423 | 58 | 249 | 0.0 | 0.9 | 0.00 | 0.00 | 0.00 | 44 | 1014.2 |
| 20260503213920 | 59 | 251 | 1.7 | 3.5 | 0.00 | 0.00 | 0.00 | 41 | 1014.1 |
| 20260503213418 | 58 | 276 | 1.7 | 2.6 | 0.00 | 0.00 | 0.00 | 39 | 1014.2 |
| 20260503212914 | 58 | 193 | 1.7 | 2.6 | 0.00 | 0.00 | 0.00 | 40 | 1014.1 |
| 20260503212412 | 59 | 210 | 3.5 | 5.2 | 0.00 | 0.00 | 0.00 | 40 | 1014.1 |
| 20260503211909 | 59 | 306 | 0.0 | 0.0 | 0.00 | 0.00 | 0.00 | 40 | 1014.0 |
| 20260503211405 | 60 | 233 | 3.5 | 6.1 | 0.00 | 0.00 | 0.00 | 40 | 1014.2 |
| 20260503210901 | 59 | 270 | 1.7 | 2.6 | 0.00 | 0.00 | 0.00 | 41 | 1014.3 |
| 20260503210359 | 59 | 222 | 1.7 | 2.6 | 0.00 | 0.00 | 0.00 | 40 | 1014.4 |
| 20260503205853 | 60 | 263 | 1.7 | 1.7 | 0.00 | 0.00 | 0.00 | 40 | 1014.1 |
| 20260503205350 | 60 | 246 | 0.9 | 1.7 | 0.00 | 0.00 | 0.00 | 39 | 1014.4 |
| 20260503204846 | 59 | 247 | 1.7 | 2.6 | 0.00 | 0.00 | 0.00 | 40 | 1014.3 |
| 20260503204344 | 60 | 131 | 1.7 | 3.5 | 0.00 | 0.00 | 0.00 | 38 | 1014.3 |
| 20260503203841 | 61 | 261 | 3.5 | 5.2 | 0.00 | 0.00 | 0.00 | 39 | 1014.4 |
| 20260503203338 | 61 | 212 | 1.7 | 1.7 | 0.00 | 0.00 | 0.00 | 39 | 1014.2 |
| 20260503202835 | 60 | 216 | 5.2 | 7.8 | 0.00 | 0.00 | 0.00 | 41 | 1014.5 |
| 20260503202333 | 61 | 284 | 1.7 | 1.7 | 0.00 | 0.00 | 0.00 | 37 | 1014.4 |
| 20260503201831 | 61 | 280 | 2.6 | 2.6 | 0.00 | 0.00 | 0.00 | 37 | 1014.4 |
| 20260503201328 | 59 | 23 | 2.6 | 3.5 | 0.00 | 0.00 | 0.00 | 40 | 1014.4 |
| 20260503200825 | 60 | 222 | 3.5 | 5.2 | 0.00 | 0.00 | 0.00 | 39 | 1014.6 |
| 20260503200321 | 59 | 224 | 2.6 | 3.5 | 0.00 | 0.00 | 0.00 | 38 | 1014.5 |
| 20260503195819 | 58 | 214 | 1.7 | 2.6 | 0.00 | 0.00 | 0.00 | 39 | 1014.9 |
| 20260503195315 | 60 | 270 | 4.3 | 5.2 | 0.00 | 0.00 | 0.00 | 36 | 1014.8 |
| 20260503194813 | 60 | 228 | 2.6 | 3.5 | 0.00 | 0.00 | 0.00 | 37 | 1014.9 |
| 20260503194308 | 59 | 243 | 2.6 | 3.5 | 0.00 | 0.00 | 0.00 | 38 | 1015.0 |
| 20260503193804 | 59 | 216 | 2.6 | 3.5 | 0.00 | 0.00 | 0.00 | 39 | 1014.9 |
| 20260503193300 | 59 | 269 | 1.7 | 2.6 | 0.00 | 0.00 | 0.00 | 43 | 1015.1 |
| 20260503192757 | 61 | 246 | 0.9 | 1.7 | 0.00 | 0.00 | 0.00 | 37 | 1015.3 |
| 20260503192252 | 59 | 220 | 1.7 | 2.6 | 0.00 | 0.00 | 0.00 | 39 | 1015.4 |
| 20260503191749 | 59 | 314 | 1.7 | 2.6 | 0.00 | 0.00 | 0.00 | 40 | 1015.3 |
| 20260503191246 | 58 | 138 | 2.6 | 3.5 | 0.00 | 0.00 | 0.00 | 41 | 1015.4 |
| 20260503190743 | 61 | 251 | 0.9 | 1.7 | 0.00 | 0.00 | 0.00 | 37 | 1015.6 |
| 20260503190239 | 60 | 237 | 1.7 | 1.7 | 0.00 | 0.00 | 0.00 | 38 | 1015.8 |
| 20260503185731 | 59 | 260 | 3.5 | 5.2 | 0.00 | 0.00 | 0.00 | 39 | 1015.6 |
| 20260503185227 | 59 | 220 | 3.5 | 6.1 | 0.00 | 0.00 | 0.00 | 39 | 1015.8 |
| 20260503184721 | 60 | 288 | 1.7 | 1.7 | 0.00 | 0.00 | 0.00 | 38 | 1015.7 |
| 20260503184218 | 60 | 213 | 2.6 | 5.2 | 0.00 | 0.00 | 0.00 | 38 | 1015.9 |
| 20260503183714 | 59 | 203 | 2.6 | 2.6 | 0.00 | 0.00 | 0.00 | 42 | 1015.7 |
| 20260503183212 | 59 | 229 | 1.7 | 2.6 | 0.00 | 0.00 | 0.00 | 40 | 1015.8 |
| 20260503182710 | 59 | 223 | 2.6 | 2.6 | 0.00 | 0.00 | 0.00 | 39 | 1016.4 |
| 20260503182208 | 60 | 305 | 1.7 | 2.6 | 0.00 | 0.00 | 0.00 | 36 | 1016.1 |
| 20260503181704 | 59 | 199 | 1.7 | 1.7 | 0.00 | 0.00 | 0.00 | 42 | 1016.4 |
| 20260503181201 | 60 | 287 | 4.3 | 7.8 | 0.00 | 0.00 | 0.00 | 39 | 1016.0 |
| 20260503180658 | 59 | 218 | 1.7 | 2.6 | 0.00 | 0.00 | 0.00 | 39 | 1016.1 |
| 20260503180157 | 58 | 269 | 2.6 | 5.2 | 0.00 | 0.00 | 0.00 | 42 | 1016.4 |
| 20260503175653 | 59 | 286 | 2.6 | 3.5 | 0.00 | 0.00 | 0.00 | 38 | 1016.3 |
| 20260503175150 | 58 | 305 | 1.7 | 1.7 | 0.00 | 0.00 | 0.00 | 42 | 1016.5 |
| 20260503174646 | 58 | 182 | 4.3 | 6.1 | 0.00 | 0.00 | 0.00 | 42 | 1016.4 |
| 20260503174144 | 59 | 259 | 3.5 | 3.5 | 0.00 | 0.00 | 0.00 | 42 | 1016.5 |
| 20260503173639 | 59 | 244 | 2.6 | 3.5 | 0.00 | 0.00 | 0.00 | 42 | 1016.6 |
| 20260503173136 | 58 | 269 | 1.7 | 2.6 | 0.00 | 0.00 | 0.00 | 41 | 1016.4 |
| 20260503172633 | 59 | 278 | 3.5 | 5.2 | 0.00 | 0.00 | 0.00 | 40 | 1016.7 |
| 20260503172130 | 58 | 293 | 2.6 | 3.5 | 0.00 | 0.00 | 0.00 | 43 | 1016.8 |
| 20260503171626 | 58 | 231 | 5.2 | 7.0 | 0.00 | 0.00 | 0.00 | 43 | 1016.7 |
| 20260503171124 | 57 | 270 | 2.6 | 2.6 | 0.00 | 0.00 | 0.00 | 43 | 1016.8 |
| 20260503170621 | 58 | 185 | 3.5 | 3.5 | 0.00 | 0.00 | 0.00 | 44 | 1016.9 |
| 20260503170117 | 58 | 270 | 3.5 | 3.5 | 0.00 | 0.00 | 0.00 | 45 | 1016.9 |
| 20260503151012 | 55 | 292 | 4.3 | 7.8 | 0.00 | 0.00 | 0.00 | 42 | 1017.6 |
| 20260503150508 | 54 | 303 | 0.9 | 1.7 | 0.00 | 0.00 | 0.00 | 46 | 1017.8 |
| 20260503131355 | 45 | 263 | 2.6 | 3.5 | 0.00 | 0.00 | 0.00 | 66 | 1018.4 |
| 20260503130853 | 45 | 250 | 0.9 | 0.9 | 0.00 | 0.00 | 0.00 | 66 | 1018.1 |
| 20260503130350 | 45 | 250 | 0.0 | 0.0 | 0.00 | 0.00 | 0.00 | 65 | 1018.3 |
| 20260503110744 | 32 | 300 | 0.0 | 0.0 | 0.00 | 0.00 | 0.00 | 98 | 1017.8 |
| 20260503110241 | 32 | 300 | 0.0 | 0.0 | 0.00 | 0.00 | 0.00 | 98 | 1017.8 |
| 20260503100207 | 32 | 299 | 0.0 | 0.0 | 0.00 | 0.00 | 0.00 | 98 | 1017.4 |
| 20260503090131 | 32 | 299 | 0.0 | 0.0 | 0.00 | 0.00 | 0.00 | 98 | 1017.3 |
| 20260503081608 | 33 | 300 | 0.0 | 0.0 | 0.00 | 0.00 | 0.00 | 98 | 1017.5 |
| 20260503081105 | 33 | 300 | 0.0 | 0.0 | 0.00 | 0.00 | 0.00 | 98 | 1017.6 |
| 20260503080600 | 33 | 300 | 0.0 | 0.0 | 0.00 | 0.00 | 0.00 | 98 | 1017.6 |
| 20260503072534 | 33 | 300 | 0.0 | 0.0 | 0.00 | 0.00 | 0.00 | 97 | 1017.7 |
| 20260503072032 | 34 | 300 | 0.0 | 0.0 | 0.00 | 0.00 | 0.00 | 97 | 1017.5 |
| 20260503071528 | 34 | 300 | 0.0 | 0.0 | 0.00 | 0.00 | 0.00 | 97 | 1017.4 |
| 20260503071025 | 34 | 300 | 0.0 | 0.0 | 0.00 | 0.00 | 0.00 | 97 | 1017.6 |
| 20260503070521 | 34 | 300 | 0.0 | 0.0 | 0.00 | 0.00 | 0.00 | 97 | 1017.5 |
| 20260503054934 | 35 | 301 | 0.0 | 0.0 | 0.00 | 0.00 | 0.00 | 94 | 1017.8 |
| 20260503054430 | 36 | 301 | 0.0 | 0.0 | 0.00 | 0.00 | 0.00 | 94 | 1017.8 |
| 20260503053928 | 36 | 301 | 0.0 | 0.0 | 0.00 | 0.00 | 0.00 | 93 | 1018.0 |
| 20260503053426 | 36 | 301 | 0.0 | 0.0 | 0.00 | 0.00 | 0.00 | 93 | 1017.8 |
| 20260503052922 | 36 | 301 | 0.0 | 0.0 | 0.00 | 0.00 | 0.00 | 92 | 1017.8 |
| 20260503052420 | 37 | 301 | 0.0 | 0.0 | 0.00 | 0.00 | 0.00 | 92 | 1017.8 |
| 20260503051916 | 37 | 301 | 0.0 | 0.0 | 0.00 | 0.00 | 0.00 | 92 | 1017.8 |
| 20260503051412 | 37 | 301 | 0.0 | 0.0 | 0.00 | 0.00 | 0.00 | 91 | 1017.7 |
| 20260503050909 | 38 | 301 | 0.0 | 0.0 | 0.00 | 0.00 | 0.00 | 91 | 1018.0 |
| 20260503050405 | 38 | 301 | 0.0 | 0.0 | 0.00 | 0.00 | 0.00 | 90 | 1017.8 |
| 20260503045903 | 39 | 301 | 0.0 | 0.0 | 0.00 | 0.00 | 0.00 | 90 | 1017.9 |
| 20260503045400 | 39 | 301 | 0.0 | 0.0 | 0.00 | 0.00 | 0.00 | 89 | 1017.8 |
| 20260503044856 | 39 | 300 | 0.0 | 0.0 | 0.00 | 0.00 | 0.00 | 88 | 1017.9 |
| 20260503044354 | 39 | 300 | 0.0 | 0.0 | 0.00 | 0.00 | 0.00 | 87 | 1018.0 |
| 20260503043851 | 39 | 300 | 0.0 | 0.0 | 0.00 | 0.00 | 0.00 | 87 | 1018.0 |
| 20260503043348 | 39 | 300 | 0.0 | 0.0 | 0.00 | 0.00 | 0.00 | 88 | 1017.9 |
| 20260503042844 | 39 | 300 | 0.0 | 0.0 | 0.00 | 0.00 | 0.00 | 87 | 1017.9 |
| 20260503042341 | 39 | 300 | 0.0 | 0.0 | 0.00 | 0.00 | 0.00 | 88 | 1017.9 |
| 20260503041836 | 39 | 300 | 0.0 | 0.0 | 0.00 | 0.00 | 0.00 | 87 | 1017.9 |
| 20260503041334 | 39 | 300 | 0.0 | 0.0 | 0.00 | 0.00 | 0.00 | 87 | 1018.0 |
| 20260503040832 | 39 | 300 | 0.0 | 0.0 | 0.00 | 0.00 | 0.00 | 87 | 1018.0 |
| 20260503040329 | 39 | 300 | 0.0 | 0.0 | 0.00 | 0.00 | 0.00 | 86 | 1018.1 |
| 20260503035826 | 40 | 300 | 0.0 | 0.0 | 0.00 | 0.00 | 0.00 | 86 | 1018.3 |
| 20260503035323 | 40 | 300 | 0.0 | 0.0 | 0.00 | 0.00 | 0.00 | 86 | 1017.9 |
| 20260503034820 | 40 | 301 | 0.0 | 0.0 | 0.00 | 0.00 | 0.00 | 86 | 1018.0 |
| 20260503034317 | 40 | 300 | 0.0 | 0.0 | 0.00 | 0.00 | 0.00 | 85 | 1018.0 |
| 20260503033814 | 40 | 321 | 0.0 | 0.0 | 0.00 | 0.00 | 0.00 | 86 | 1018.2 |
| 20260503033312 | 40 | 321 | 0.0 | 0.0 | 0.00 | 0.00 | 0.00 | 86 | 1018.1 |
| 20260503032810 | 40 | 321 | 0.0 | 0.0 | 0.00 | 0.00 | 0.00 | 86 | 1018.1 |
| 20260503032309 | 40 | 321 | 0.0 | 0.0 | 0.00 | 0.00 | 0.00 | 85 | 1018.1 |
| 20260503031805 | 40 | 321 | 0.0 | 0.0 | 0.00 | 0.00 | 0.00 | 85 | 1018.2 |
| 20260503031303 | 40 | 321 | 0.0 | 0.0 | 0.00 | 0.00 | 0.00 | 85 | 1018.1 |
| 20260503030759 | 40 | 321 | 0.0 | 0.0 | 0.00 | 0.00 | 0.00 | 84 | 1018.4 |
| 20260503030256 | 40 | 321 | 0.0 | 0.0 | 0.00 | 0.00 | 0.00 | 84 | 1018.2 |
| 20260503025752 | 40 | 324 | 0.0 | 0.0 | 0.00 | 0.00 | 0.00 | 84 | 1018.3 |
| 20260503025250 | 40 | 324 | 0.0 | 0.0 | 0.00 | 0.00 | 0.00 | 84 | 1018.3 |
| 20260503024747 | 40 | 324 | 0.0 | 0.0 | 0.00 | 0.00 | 0.00 | 84 | 1018.3 |
| 20260503024244 | 40 | 324 | 0.0 | 0.0 | 0.00 | 0.00 | 0.00 | 84 | 1018.3 |
| 20260503023741 | 40 | 324 | 0.0 | 0.0 | 0.00 | 0.00 | 0.00 | 84 | 1018.2 |
| 20260503023238 | 40 | 324 | 0.0 | 0.0 | 0.00 | 0.00 | 0.00 | 83 | 1018.4 |
| 20260503022734 | 40 | 324 | 0.0 | 0.0 | 0.00 | 0.00 | 0.00 | 83 | 1018.5 |
| 20260503022234 | 40 | 324 | 0.0 | 0.0 | 0.00 | 0.00 | 0.00 | 83 | 1018.5 |
| 20260503021731 | 40 | 324 | 0.0 | 0.0 | 0.00 | 0.00 | 0.00 | 83 | 1018.5 |
| 20260503021227 | 40 | 324 | 0.0 | 0.0 | 0.00 | 0.00 | 0.00 | 84 | 1018.6 |
| 20260503020725 | 40 | 324 | 0.0 | 0.0 | 0.00 | 0.00 | 0.00 | 82 | 1018.5 |
| 20260503020222 | 40 | 324 | 0.0 | 0.0 | 0.00 | 0.00 | 0.00 | 83 | 1018.5 |
| 20260503015718 | 40 | 324 | 0.0 | 0.0 | 0.00 | 0.00 | 0.00 | 82 | 1018.5 |
| 20260503015215 | 40 | 324 | 0.0 | 0.0 | 0.00 | 0.00 | 0.00 | 83 | 1018.5 |
| 20260503014711 | 40 | 324 | 0.0 | 0.0 | 0.00 | 0.00 | 0.00 | 82 | 1018.2 |
| 20260503014209 | 40 | 324 | 0.0 | 0.0 | 0.00 | 0.00 | 0.00 | 80 | 1018.3 |
| 20260503013706 | 40 | 324 | 0.0 | 0.0 | 0.00 | 0.00 | 0.00 | 81 | 1018.2 |
| 20260503013204 | 40 | 324 | 0.0 | 0.0 | 0.00 | 0.00 | 0.00 | 83 | 1018.4 |
| 20260503012701 | 40 | 324 | 0.0 | 0.0 | 0.00 | 0.00 | 0.00 | 84 | 1018.4 |
| 20260503012158 | 40 | 324 | 0.0 | 0.0 | 0.00 | 0.00 | 0.00 | 83 | 1018.5 |
| 20260503011654 | 40 | 324 | 0.0 | 0.0 | 0.00 | 0.00 | 0.00 | 82 | 1018.3 |
| 20260503011151 | 40 | 324 | 0.0 | 0.0 | 0.00 | 0.00 | 0.00 | 81 | 1018.3 |
| 20260503010647 | 40 | 324 | 0.0 | 0.0 | 0.00 | 0.00 | 0.00 | 82 | 1018.2 |
| 20260503010145 | 40 | 324 | 0.0 | 0.0 | 0.00 | 0.00 | 0.00 | 83 | 1018.3 |
| 20260503005642 | 40 | 324 | 0.0 | 0.0 | 0.00 | 0.00 | 0.00 | 82 | 1018.2 |
| 20260503005139 | 40 | 324 | 0.0 | 0.0 | 0.00 | 0.00 | 0.00 | 81 | 1018.2 |
| 20260503004635 | 41 | 324 | 0.0 | 0.0 | 0.00 | 0.00 | 0.00 | 80 | 1018.2 |
| 20260503004134 | 40 | 324 | 0.0 | 0.0 | 0.00 | 0.00 | 0.00 | 77 | 1018.3 |
| 20260503003631 | 41 | 324 | 0.0 | 0.0 | 0.00 | 0.00 | 0.00 | 79 | 1018.2 |
| 20260503003127 | 41 | 324 | 0.0 | 0.0 | 0.00 | 0.00 | 0.00 | 79 | 1018.4 |
| 20260503002625 | 41 | 324 | 0.0 | 0.0 | 0.00 | 0.00 | 0.00 | 77 | 1018.3 |
| 20260503002121 | 41 | 324 | 0.0 | 0.0 | 0.00 | 0.00 | 0.00 | 77 | 1018.2 |